TITAN 3C TRANSTAGE DEB, 38705

Orbit data source: Space-Track

TITAN 3C TRANSTAGE DEB, 38705 is space debris in GEO originally from a launch on Thu, 26 Sep 1968 UTC launched from the Air Force Eastern Test Range (AFETR). Debris objects in space refer to the collection of defunct objects orbiting the Earth. Examples of debris include non-operational satellites, rocket bodies, and fragments generated from explosions, collisions, or faulty payload assembly.

Not visible in the next 10 days
Identifier
38705, 1968-081AF
Orbit
GEO
Country
Flag of USUS
Related business
Manufacturer
Unknown
Mission
Spacecraft
Bus & Motor
Unknown
Mass
Unknown
Launch date (UTC)
1968-09-26 (57 years ago)
Launch vehicle
Unknown
Launch site
Air Force Eastern Test Range (AFETR)
Object type
Payload
Rocket body
Debris
Shape & HBR
Unknown shape, 1.1 m
Radar Cross Section
Small (<0.1 m²)

Expand to show TLE details & history
Last TLE update: 2 days ago

TLE from 2 days ago
0 TITAN 3C TRANSTAGE DEB
1 38705U 68081AF  25351.90150322  .00000078  00000-0  00000-0 0  9999
2 38705   2.7682  60.6684 0276688 353.4665   5.7389  1.02086079 73217
Epoch: 2025-12-17T21:38Z
TLE epoch observation values (Epoch: 2025-12-17T21:38:09.878Z)
Latitude
Longitude
8.87322°
Altitude
34,134.432 km
Speed
3.18 km/s
True Right ascension
04h 00m 42s
True Declination
0° 00' 00"
Sunlit
Object was in daylight at epoch
Visualization orbit readout
Latitude
Unknown
Longitude
Unknown
Altitude
Unknown
Speed
Unknown
Apparent Right ascension
Unknown
Apparent Declination
Unknown
Sunlit
N/A
Visualization observer readout
Local Sidereal Time
08:59:29
Azimuth
Unknown
Elevation
Unknown
Doppler factor
Unknown
Orbital elements
Apogee altitude
36,439.424 km
Perigee altitude
34,133.797 km
Semi-major axis
41,664.747 km
Eccentricity
0.02767
Inclination
2.7682°
RAAN
60.6684°
Arg. of periapsis
353.4665°
True anomaly
6.06723°
Mean anomaly
5.7389°
Eccentric anomaly
5.90191°
Mean motion
0.25521 °/min
Orbital period
1,410.63 mins
BSTAR
0
Loading maneuver chart data...
Computing Atmospheric mass density...

Documentation

Showing up to 5 results
|